Flag Weather past 2 weeks in Fatehpur, Uttar Pradesh, India

Now
79 °F

Haze.


Feels Like: 79 °F
Forecast: 61 / 86 °F
Wind: 2 mph from North

Location: Lucknow / Amausi

Current Time: Nov 28, 2014 at 2:41:10 PM

Latest Report: Nov 28, 2014 at 1:30 PM


Visibility: 2 mi

Pressure: 29.89 "Hg

Humidity: 39%

Dew point: 52 °F

Location of FatehpurLocation

Historic Weather in Fatehpur — Graph

°F

Fatehpur temperature yesterday

Maximum temperature yesterday: 81 °F (at 2:30 PM)
Minimum temperature yesterday: 50 °F (at 5:00 AM)
Average temperature yesterday: 64 °F

Past Weeks' High & Low Weather Summary

 TemperatureHumidityPressure
High82 °F (Nov 13, 2:00 PM)100% (Nov 28, 5:30 AM)30.80 "Hg (Nov 28, 5:30 AM)
Low48 °F (Nov 25, 6:00 AM)24% (Nov 15, 2:30 PM)29.77 "Hg (Nov 26, 3:30 PM)
Average67 °F59%29.95 "Hg
* Reported Nov 13 1:00 PM — Nov 28 1:00 PM, Fatehpur, Weather by CustomWeather, © 2014

Note: Actual official high and low records may vary slightly from our data, if they occured in-between our weather recording intervals... More about our weather records

Advertising

Fatehpur weather history for previous 24 hours

 ConditionsComfort  
Time TempWeatherWind HumidityBarometerVisibility
1:00 PM
Nov 28
79 °FHaze.2 mph39%29.92 "Hg2 mi
12:30 PM77 °FHaze.2 mph42%29.92 "Hg2 mi
11:30 AM73 °FFog.2 mph47%29.95 "Hg1 mi
11:00 AM68 °FFog.2 mph53%29.95 "Hg1 mi
10:00 AM66 °FFog.2 mph56%29.98 "Hg1 mi
9:30 AM63 °FFog.No wind64%29.98 "Hg1 mi
8:30 AM55 °FFog.No wind82%29.98 "Hg1 mi
8:00 AM52 °FFog.No wind88%29.95 "Hg1 mi
7:30 AM52 °FFog.No wind88%29.95 "Hg1 mi
6:30 AM52 °FFog.No wind88%29.92 "Hg1 mi
5:30 AM52 °FFog.No wind100%29.89 "Hg1 mi
5:00 AM54 °FFog.No wind94%29.89 "Hg1 mi
4:00 AM55 °FFog.No wind94%29.86 "Hg1 mi
3:00 AM55 °FFog.No wind94%29.86 "Hg1 mi
2:00 AM57 °FFog.No wind88%29.86 "Hg1 mi
1:00 AM57 °FFog.No wind88%29.89 "Hg1 mi
11:00 PM
Nov 27
59 °FFog.No wind82%29.89 "Hg1 mi
9:00 PM61 °FFog.No wind77%29.89 "Hg1 mi
7:00 PM66 °FHaze.No wind73%29.86 "Hg2 mi
6:30 PM66 °FHaze.No wind73%29.86 "Hg2 mi
6:00 PM70 °FHaze.No wind64%29.86 "Hg2 mi
5:30 PM72 °FHaze.No wind61%29.83 "Hg2 mi
5:00 PM75 °FHaze.No wind50%29.83 "Hg2 mi
4:30 PM77 °FHaze.No wind39%29.83 "Hg2 mi
4:00 PM79 °FHaze.No wind37%29.83 "Hg2 mi
3:00 PM81 °FHaze.No wind34%29.83 "Hg2 mi
2:30 PM81 °FHaze.No wind34%29.86 "Hg2 mi
Weather by CustomWeather, © 2014

See weather overviewHow to use our weather pages